STARLINK-1575, 46349

Orbit data source: Space-Track

STARLINK-1575, 46349 is a payload satellite owned by SpaceX/Seattle (US) in LEO that was launched on Thu, 03 Sep 2020 UTC via an FALCON 9 launch vehicle from the Air Force Eastern Test Range (AFETR). Payloads include a variety of satellites, spacecraft, and rockets equipped with specific instruments for various scientific and technological missions. These include communications satellites like Starlink; space stations such as the ISS; scientific satellites like the Hubble; Earth observation satellites from companies like Planet Labs, Umbra, and HawkEye 360; GPS; miniature CubeSats for education and research; and military/defense satellites.

Loading next visibility...
STARLINK-1575 details
Identifier
46349, 2020-062AA
Orbit
LEO
Last TLE update17 hours ago
Origin
Flag of USSpaceX/Seattle (US)
ManufacturerSpaceX/Seattle
MissionOperational Commercial Communications
Bus & MotorSTARLINK, Unknown motor
Mass260 kg wet, ~248 kg dry
Launch date (UTC)
2020-09-03 (4 years ago)
Launch vehicle
FALCON 9
Launch site
Air Force Eastern Test Range (AFETR)
Object type
Payload
Rocket body
Debris
Shape & HBRBox + 1 Pan, 8.86 m
Radar Cross Section13.562 m², Large (>1 m²)

Expand to show TLE details & history

TLE from 17 hours ago
0 STARLINK-1575
1 46349U 20062AA  24360.70912284 -.00001383  00000-0 -74014-4 0  9991
2 46349  53.0532 142.2796 0001483  94.0390 266.0768 15.06386148238952
Epoch: 2024-12-25T17:01Z
Definitive object data (Epoch: 2024-12-25T17:01:08.213Z)
Latitude-0.00006°
Longitude152.29636°
Altitude548.203 km
Speed7.589 km/s
True Right ascension09h 29m 07s
True Declination0° 00' 00"
Sunlit
Object was in full shadow at TLE epoch
Visualization TLE readout
Latitude-52.47024°
Longitude45.94363°
Altitude566.475 km
Speed7.577 km/s
Apparent Right ascension23h 42m 56s
Apparent Declination-52° 36' 48"
Sunlit
Object is in daylight
Visualization observer readout
Local Sidereal Time09:27:09
Azimuth229.832° WSW
Elevation-63.66°
Doppler factor1
Orbital elements
Apogee altitude548.552 km
Perigee altitude546.498 km
Semi-major axis6,925.662 km
Eccentricity0.0001483
Inclination53.0532°
RAAN142.2796°
Arg. of periapsis94.039°
True anomaly266.05985°
Mean anomaly266.0768°
Eccentric anomaly266.06832°
Mean motion3.76575 °/min
BSTAR-0.000074014
Orbital period95.6 mins
Loading maneuver chart data...
Loading historical data...
Loading historical data...
Loading historical data...
Loading historical data...
Loading historical data...
Loading historical data...
Loading historical data...

STARLINK-1575 Visibility forecast

Observer location: undefined°, undefined

Span
Click to sort rows by Start time (UTC) header in descending order
Start Az.
Max El. time (UTC)
Max El. Az.
Max El.
End time (UTC)
End Az.
7 mins2024-12-26 12:18:02.042Z223.974° SW2024-12-26 12:21:02.042Z199.549° SSW42.854°2024-12-26 12:25:02.042Z52.831° ENE
4 mins2024-12-26 14:00:02.042Z308.613° NW2024-12-26 14:01:02.042Z329.082° NNW20.842°2024-12-26 14:04:02.042Z23.99° NE
4 mins2024-12-26 17:21:02.042Z345.172° N2024-12-26 17:23:02.042Z21.413° NNE18.536°2024-12-26 17:25:02.042Z56.738° ENE
7 mins2024-12-26 19:00:02.042Z313.631° NW2024-12-26 19:03:02.042Z40.249° NE44.314°2024-12-26 19:07:02.042Z125.722° SE
|